Tracking 29489 objects as of 10-Sep-2024
HD Live streaming from Space Station
objects crossing your sky now

FENGYUN 1C DEB

Track FENGYUN 1C DEB now!
10-day predictions


NORAD ID: 31097
Int'l Code: 1999-025BGT
Perigee: 773.0 km
Apogee: 802.8 km
Inclination: 98.9 °
Period: 100.5 minutes
Semi major axis: 7158 km
RCS: 0.0109 m2 (small)
Launch date: May 10, 1999
Source: People's Republic of China (PRC)
Launch site: Taiyaun Space Center, China (TSC)

Note: This is SATELLITE DEBRIS
Your satellite tracking list
Your tracking list is empty




NASA's NSSDC Master Catalog

Two Line Element Set (TLE):
1 31097U 99025BGT 24252.57732628  .00027714  00000-0  10022-1 0  9997
2 31097  98.8550 352.9042 0020823 201.3455 293.5639 14.33282409904452
Source of the keplerian elements: AFSPC